timestamp,wind_dir_avg,wind_spd_avg,wind_spd_max_dir,wind_spd_gust,battery_voltage,lat,long
2023-03-15 00:04:00+00:00,118.0,3.91,125.0,4.7,12.33,47.59359,-54.27349
2023-03-15 00:14:00+00:00,83.0,3.0,83.0,3.82,12.25,47.59359,-54.27349
2023-03-15 00:24:00+00:00,77.0,3.57,82.0,4.52,12.25,47.59359,-54.27349
2023-03-15 00:34:00+00:00,72.0,7.05,77.0,8.97,12.25,47.59359,-54.27349
2023-03-15 00:44:00+00:00,64.0,7.02,75.0,9.31,12.25,47.59359,-54.27349
2023-03-15 00:54:00+00:00,61.0,7.05,59.0,7.79,12.25,47.59359,-54.27349
2023-03-15 01:04:00+00:00,62.0,6.71,61.0,7.76,12.25,47.59359,-54.27349
2023-03-15 01:14:01+00:00,64.0,6.73,57.0,8.15,12.25,47.59359,-54.27349
2023-03-15 01:24:01+00:00,72.0,6.11,82.0,7.63,12.25,47.59359,-54.27349
2023-03-15 01:34:01+00:00,67.0,5.43,71.0,6.51,12.25,47.59359,-54.27349
2023-03-15 01:44:01+00:00,73.0,4.95,58.0,6.68,12.25,47.59359,-54.27349
2023-03-15 01:54:01+00:00,71.0,5.71,66.0,7.29,12.25,47.59359,-54.27349
2023-03-15 02:04:01+00:00,74.0,5.74,95.0,7.41,12.25,47.59359,-54.27349
2023-03-15 02:14:00+00:00,72.0,4.93,82.0,6.51,12.25,47.59359,-54.27349
2023-03-15 02:24:00+00:00,56.0,6.31,58.0,7.66,12.25,47.59359,-54.27349
2023-03-15 02:34:00+00:00,60.0,6.63,62.0,7.74,12.25,47.59359,-54.27349
2023-03-15 02:44:00+00:00,57.0,7.69,62.0,9.11,12.25,47.59359,-54.27349
2023-03-15 02:54:00+00:00,59.0,7.58,55.0,9.51,12.25,47.59359,-54.27349
2023-03-15 03:04:00+00:00,72.0,6.13,68.0,8.44,12.25,47.59359,-54.27349
2023-03-15 03:14:00+00:00,66.0,5.67,77.0,7.65,12.17,47.59359,-54.27349
2023-03-15 03:24:00+00:00,69.0,7.5,66.0,8.87,12.17,47.59359,-54.27349
2023-03-15 03:34:00+00:00,66.0,7.54,65.0,8.75,12.17,47.59359,-54.27349
2023-03-15 03:44:00+00:00,80.0,5.4,88.0,8.22,12.17,47.59359,-54.27349
2023-03-15 03:54:00+00:00,69.0,7.83,74.0,8.57,12.17,47.59359,-54.27349
2023-03-15 04:04:00+00:00,69.0,7.23,67.0,8.3,12.17,47.59359,-54.27349
2023-03-15 04:14:01+00:00,82.0,4.51,84.0,6.4,12.17,47.59359,-54.27349
2023-03-15 04:24:01+00:00,72.0,8.34,70.0,10.08,12.17,47.59359,-54.27349
2023-03-15 04:34:01+00:00,77.0,4.66,77.0,6.97,12.17,47.59359,-54.27349
2023-03-15 04:44:01+00:00,73.0,6.1,61.0,8.59,12.17,47.59359,-54.27349
2023-03-15 04:54:01+00:00,73.0,7.47,74.0,8.37,12.17,47.59359,-54.27349
2023-03-15 05:04:01+00:00,79.0,5.14,92.0,7.61,12.17,47.59359,-54.27349
2023-03-15 05:14:00+00:00,82.0,3.61,60.0,4.83,12.17,47.59359,-54.27349
2023-03-15 05:24:00+00:00,77.0,4.13,70.0,6.17,12.17,47.59359,-54.27349
2023-03-15 05:34:00+00:00,86.0,5.14,87.0,7.89,12.17,47.59359,-54.27349
2023-03-15 05:44:00+00:00,83.0,5.87,87.0,8.53,12.17,47.59359,-54.27349
2023-03-15 05:54:00+00:00,73.0,7.25,78.0,8.81,12.17,47.59359,-54.27349
2023-03-15 06:04:00+00:00,71.0,5.98,63.0,9.43,12.17,47.59359,-54.27349
2023-03-15 06:14:00+00:00,81.0,4.21,76.0,6.94,12.09,47.59359,-54.27349
2023-03-15 06:24:00+00:00,82.0,4.29,97.0,5.46,12.09,47.59359,-54.27349
2023-03-15 06:34:00+00:00,97.0,4.61,101.0,7.83,12.09,47.59359,-54.27349
2023-03-15 06:44:00+00:00,73.0,5.77,74.0,7.18,12.09,47.59359,-54.27349
2023-03-15 06:54:00+00:00,89.0,4.01,107.0,6.2,12.09,47.59359,-54.27349
2023-03-15 07:04:00+00:00,80.0,5.55,70.0,8.96,12.09,47.59359,-54.27349
2023-03-15 07:14:00+00:00,78.0,5.48,66.0,8.04,12.09,47.59359,-54.27349
2023-03-15 07:24:00+00:00,83.0,5.77,87.0,8.0,12.09,47.59359,-54.27349
2023-03-15 07:34:00+00:00,89.0,5.84,92.0,8.73,12.09,47.59359,-54.27349
2023-03-15 07:44:00+00:00,77.0,5.6,70.0,8.43,12.09,47.59359,-54.27349
2023-03-15 07:54:00+00:00,87.0,5.37,90.0,7.84,12.09,47.59359,-54.27349
2023-03-15 08:04:00+00:00,83.0,5.36,72.0,8.86,12.09,47.59359,-54.27349
2023-03-15 08:14:00+00:00,85.0,5.08,80.0,7.03,12.09,47.59359,-54.27349
2023-03-15 08:24:00+00:00,79.0,5.3,101.0,7.11,12.09,47.59359,-54.27349
2023-03-15 08:34:00+00:00,73.0,7.32,74.0,11.31,12.09,47.59359,-54.27349
2023-03-15 08:44:00+00:00,72.0,7.38,64.0,10.79,12.09,47.59359,-54.27349
2023-03-15 08:54:00+00:00,71.0,7.88,71.0,9.72,12.09,47.59359,-54.27349
2023-03-15 09:04:00+00:00,69.0,9.27,71.0,12.31,12.09,47.59359,-54.27349
2023-03-15 09:14:00+00:00,66.0,9.21,77.0,13.01,12.09,47.59359,-54.27349
2023-03-15 09:24:00+00:00,77.0,4.56,65.0,7.57,12.09,47.59359,-54.27349
2023-03-15 09:34:00+00:00,73.0,8.49,77.0,12.28,12.09,47.59359,-54.27349
2023-03-15 09:44:00+00:00,79.0,6.61,73.0,12.71,12.09,47.59359,-54.27349
2023-03-15 09:54:00+00:00,80.0,6.63,102.0,13.67,12.09,47.59359,-54.27349
2023-03-15 10:04:00+00:00,72.0,11.42,74.0,14.85,12.09,47.59359,-54.27349
2023-03-15 10:14:00+00:00,89.0,7.03,81.0,12.47,12.01,47.59359,-54.27349
2023-03-15 10:24:00+00:00,72.0,7.62,58.0,13.78,12.01,47.59359,-54.27349
2023-03-15 10:34:00+00:00,75.0,7.42,76.0,13.58,12.01,47.59359,-54.27349
2023-03-15 10:44:00+00:00,77.0,5.5,91.0,7.6,12.01,47.59359,-54.27349
2023-03-15 10:54:00+00:00,89.0,6.65,94.0,13.81,12.01,47.59359,-54.27349
2023-03-15 11:04:00+00:00,76.0,6.39,73.0,8.97,12.01,47.59359,-54.27349
2023-03-15 11:14:00+00:00,82.0,4.62,94.0,7.03,12.17,47.59359,-54.27349
2023-03-15 11:24:00+00:00,75.0,6.43,61.0,9.46,12.17,47.59359,-54.27349
2023-03-15 11:34:00+00:00,72.0,6.54,69.0,9.12,12.17,47.59359,-54.27349
2023-03-15 11:44:00+00:00,74.0,7.48,70.0,13.52,12.17,47.59359,-54.27349
2023-03-15 11:54:00+00:00,82.0,4.97,76.0,8.29,12.17,47.59359,-54.27349
2023-03-15 12:04:00+00:00,104.0,5.77,89.0,13.92,12.17,47.59359,-54.27349
2023-03-15 12:14:00+00:00,91.0,5.47,105.0,9.35,12.89,47.59359,-54.27349
2023-03-15 12:24:00+00:00,83.0,5.85,78.0,9.32,12.89,47.59359,-54.27349
2023-03-15 12:34:00+00:00,71.0,8.22,73.0,13.11,12.89,47.59359,-54.27349
2023-03-15 12:44:00+00:00,83.0,6.41,94.0,12.36,12.89,47.59359,-54.27349
2023-03-15 12:54:00+00:00,76.0,5.68,80.0,8.25,12.89,47.59359,-54.27349
2023-03-15 13:04:00+00:00,84.0,7.56,94.0,13.42,12.89,47.59359,-54.27349
2023-03-15 13:14:00+00:00,90.0,5.13,113.0,8.62,13.68,47.59359,-54.27349
2023-03-15 13:24:00+00:00,76.0,6.23,76.0,8.14,13.68,47.59359,-54.27349
2023-03-15 13:34:00+00:00,80.0,7.38,82.0,12.07,13.68,47.59359,-54.27349
2023-03-15 13:44:00+00:00,82.0,7.37,93.0,12.87,13.68,47.59359,-54.27349
2023-03-15 13:54:00+00:00,86.0,4.67,70.0,7.66,13.68,47.59359,-54.27349
2023-03-15 14:04:00+00:00,103.0,6.73,107.0,11.75,13.68,47.59359,-54.27349
2023-03-15 14:14:00+00:00,99.0,7.03,109.0,14.12,13.6,47.59359,-54.27349
2023-03-15 14:24:00+00:00,95.0,6.64,89.0,12.06,13.6,47.59359,-54.27349
2023-03-15 14:34:00+00:00,82.0,6.57,71.0,10.75,13.6,47.59359,-54.27349
2023-03-15 14:44:00+00:00,80.0,7.6,85.0,11.16,13.6,47.59359,-54.27349
2023-03-15 14:54:00+00:00,98.0,6.07,107.0,10.59,13.6,47.59359,-54.27349
2023-03-15 15:04:00+00:00,94.0,6.56,117.0,10.56,13.6,47.59359,-54.27349
2023-03-15 15:14:00+00:00,89.0,6.15,97.0,8.89,13.68,47.59359,-54.27349
2023-03-15 15:24:00+00:00,101.0,4.8,122.0,7.56,13.68,47.59359,-54.27349
2023-03-15 15:34:00+00:00,77.0,6.4,101.0,9.75,13.68,47.59359,-54.27349
2023-03-15 15:44:00+00:00,93.0,5.22,83.0,9.42,13.68,47.59359,-54.27349
2023-03-15 15:54:00+00:00,73.0,6.31,70.0,8.84,13.68,47.59359,-54.27349
2023-03-15 16:04:00+00:00,72.0,5.55,63.0,7.87,13.68,47.59359,-54.27349
2023-03-15 16:14:00+00:00,79.0,6.76,78.0,10.13,13.68,47.59359,-54.27349
2023-03-15 16:24:00+00:00,72.0,5.63,84.0,9.05,13.68,47.59359,-54.27349
2023-03-15 16:34:00+00:00,77.0,7.56,68.0,11.29,13.68,47.59359,-54.27349
2023-03-15 16:44:00+00:00,74.0,5.71,66.0,9.68,13.68,47.59359,-54.27349
2023-03-15 16:54:00+00:00,78.0,7.58,93.0,9.92,13.68,47.59359,-54.27349
2023-03-15 17:04:00+00:00,83.0,7.02,83.0,11.0,13.68,47.59359,-54.27349
2023-03-15 17:14:00+00:00,80.0,8.13,68.0,11.69,13.6,47.59359,-54.27349
2023-03-15 17:24:00+00:00,73.0,8.09,92.0,11.82,13.6,47.59359,-54.27349
2023-03-15 17:34:00+00:00,71.0,7.92,66.0,11.07,13.6,47.59359,-54.27349
2023-03-15 17:44:00+00:00,81.0,6.07,86.0,8.78,13.6,47.59359,-54.27349
2023-03-15 17:54:00+00:00,72.0,7.14,65.0,10.13,13.6,47.59359,-54.27349
2023-03-15 18:04:00+00:00,75.0,6.9,76.0,10.26,13.6,47.59359,-54.27349
2023-03-15 18:14:00+00:00,69.0,9.79,67.0,11.54,13.68,47.59359,-54.27349
2023-03-15 18:24:00+00:00,72.0,7.42,82.0,10.09,13.68,47.59359,-54.27349
2023-03-15 18:34:00+00:00,82.0,7.16,74.0,11.89,13.68,47.59359,-54.27349
2023-03-15 18:44:00+00:00,84.0,7.1,91.0,11.15,13.68,47.59359,-54.27349
2023-03-15 18:54:00+00:00,77.0,7.03,79.0,9.55,13.68,47.59359,-54.27349
2023-03-15 19:04:00+00:00,76.0,7.63,67.0,10.54,13.68,47.59359,-54.27349
2023-03-15 19:14:00+00:00,84.0,7.23,78.0,10.86,13.44,47.59359,-54.27349
2023-03-15 19:24:00+00:00,81.0,6.26,74.0,9.62,13.44,47.59359,-54.27349
2023-03-15 19:34:00+00:00,80.0,5.42,87.0,9.12,13.44,47.59359,-54.27349
2023-03-15 19:44:00+00:00,83.0,6.03,92.0,9.35,13.44,47.59359,-54.27349
2023-03-15 19:54:00+00:00,87.0,5.75,98.0,9.49,13.44,47.59359,-54.27349
2023-03-15 20:04:00+00:00,97.0,6.41,103.0,10.24,13.44,47.59359,-54.27349
2023-03-15 20:14:00+00:00,86.0,6.69,101.0,10.27,13.13,47.59359,-54.27349
2023-03-15 20:24:00+00:00,102.0,7.66,105.0,10.32,13.13,47.59359,-54.27349
2023-03-15 20:34:00+00:00,91.0,5.41,89.0,9.9,13.13,47.59359,-54.27349
2023-03-15 20:44:00+00:00,80.0,5.31,86.0,8.54,13.13,47.59359,-54.27349
2023-03-15 20:54:00+00:00,89.0,4.6,91.0,8.58,13.13,47.59359,-54.27349
2023-03-15 21:04:00+00:00,87.0,4.48,95.0,6.87,13.13,47.59359,-54.27349
2023-03-15 21:14:00+00:00,79.0,5.76,79.0,9.16,12.49,47.59359,-54.27349
2023-03-15 21:24:00+00:00,81.0,5.52,88.0,8.07,12.49,47.59359,-54.27349
2023-03-15 21:34:00+00:00,76.0,4.99,71.0,6.87,12.49,47.59359,-54.27349
2023-03-15 21:44:00+00:00,82.0,6.03,94.0,9.49,12.49,47.59359,-54.27349
2023-03-15 21:54:00+00:00,73.0,6.47,78.0,9.03,12.49,47.59359,-54.27349
2023-03-15 22:04:00+00:00,78.0,7.33,79.0,10.82,12.49,47.59359,-54.27349
2023-03-15 22:14:00+00:00,77.0,7.63,71.0,10.98,12.33,47.59359,-54.27349
2023-03-15 22:24:00+00:00,84.0,6.53,88.0,9.87,12.33,47.59359,-54.27349
2023-03-15 22:34:00+00:00,79.0,6.33,97.0,9.73,12.33,47.59359,-54.27349
2023-03-15 22:44:00+00:00,82.0,7.42,85.0,12.55,12.33,47.59359,-54.27349
2023-03-15 22:54:00+00:00,76.0,8.55,66.0,11.98,12.33,47.59359,-54.27349
2023-03-15 23:04:00+00:00,76.0,7.29,69.0,10.64,12.33,47.59359,-54.27349
2023-03-15 23:14:00+00:00,80.0,7.15,71.0,10.16,12.25,47.59359,-54.27349
2023-03-15 23:24:00+00:00,72.0,7.63,80.0,9.89,12.25,47.59359,-54.27349
2023-03-15 23:34:00+00:00,76.0,7.35,65.0,10.54,12.25,47.59359,-54.27349
2023-03-15 23:44:00+00:00,77.0,6.94,73.0,9.78,12.25,47.59359,-54.27349
2023-03-15 23:54:00+00:00,83.0,8.47,89.0,13.95,12.25,47.59359,-54.27349
